Voltar ao catálogo

MSU ALTAIR

AtivoCiênciaSSO
NORAD 61779·PAYLOAD·🇷🇺 Russia

Lançado Nov 4, 2024 de Vostochny Cosmodrome

Loading…

Próximas Passagens (próximas 24 horas)

TLE

AtualizadoSource: Space-Track

Época: Sep 14, 2026, 14:02 UTC

1 61779U 24199AW  26257.58475249  .00008523  00000-0  22579-3 0  9997
2 61779  97.2873 126.3752 0011847 353.2513   6.8571 15.38527059150858

Acompanhe MSU ALTAIR em tempo real com AllMySat

Download on the App Store